"startDT [UTC]","vpos","CH4 [ppm]","stdev(CH4) [ppm]","CO2 [ppm]","stdev(CO2) [ppm]","H2O_reported [%]","stdev(H2O_reported)","CavityPressure [torr]","CavityTemp [C]","OutletValve","CH4_dry [ppm]","CO2_dry [ppm]","DasTemp [C]","EtalonTemp [C]","WarmBoxTemp [C]","MPVPosition","T_ECpre [C]","T_EC1 [C]","T_EC2 [C]","p_inlet [hPa]","p_in [hPa]","p_out [hPa]","T_inlet [C]","RH_inlet [%]","dwpt_inlet [C]","T_vent [C]","RH_vent [%]","dwpt_vent [C]","flow_vent [l min-1]","flow_inlet [l min-1]","dwpt_sample [C]","T_room [C]"
2015-04-29 00:00:00,0.0,1.91930,0.00047,405.290,0.088,0.1690,0.0018,139.995,45.000,34007.17444,1.92247,406.114,32.375,45.069,45.000,0.00,0.09,-272.73,-272.78,2,953,-1,20.3,5.3,-19.9,20.1,5.4,-19.8,5.73,1.86,-14.2,25.0
2015-04-29 00:01:00,0.0,1.91924,0.00047,405.605,0.274,0.1717,0.0016,140.002,45.000,34005.73355,1.92252,406.440,32.376,45.069,45.001,0.00,0.09,-272.72,-272.77,2,954,-1,20.3,5.3,-19.9,20.0,5.5,-19.7,5.73,1.97,-14.2,25.0
2015-04-29 00:02:00,0.0,1.91890,0.00036,405.863,0.179,0.1717,0.0009,140.001,45.000,34007.01025,1.92215,406.695,32.390,45.069,45.000,0.00,0.09,-272.72,-272.79,2,952,-1,20.2,5.4,-19.8,20.1,5.5,-19.6,5.73,2.02,-14.3,25.1
2015-04-29 00:03:00,0.0,1.91835,0.00030,406.029,0.100,0.1716,0.0018,140.001,45.000,34007.37939,1.92163,406.871,32.430,45.069,45.000,0.00,0.09,-272.72,-272.78,2,952,-1,20.2,5.4,-19.8,20.1,5.5,-19.6,5.73,1.84,-14.3,25.1
2015-04-29 00:04:00,0.0,1.91862,0.00055,405.983,0.105,0.1728,0.0014,140.001,45.000,34007.50668,1.92195,406.830,32.438,45.068,45.000,0.00,0.09,-272.73,-272.78,3,953,-1,20.2,5.4,-19.8,20.1,5.5,-19.6,5.73,1.99,-14.3,25.1
2015-04-29 00:05:00,0.0,1.91776,0.00044,406.020,0.255,0.1726,0.0017,140.000,45.000,34006.32901,1.92100,406.857,32.438,45.068,45.000,0.00,0.09,-272.72,-272.78,2,952,-1,20.2,5.4,-19.8,20.1,5.5,-19.6,5.73,2.01,-14.3,25.1
2015-04-29 00:06:00,0.0,1.91861,0.00045,406.333,0.161,0.1722,0.0018,140.000,45.000,34008.78676,1.92186,407.172,32.439,45.068,45.000,0.00,0.09,-272.72,-272.78,1,954,-1,20.3,5.4,-19.8,20.1,5.5,-19.6,5.73,1.85,-14.3,25.1
2015-04-29 00:07:00,0.0,1.91800,0.00046,406.513,0.190,0.1717,0.0015,139.997,45.000,34008.52535,1.92128,407.365,32.442,45.068,45.000,0.00,0.09,-272.73,-272.78,3,952,-1,20.3,5.4,-19.8,20.1,5.5,-19.6,5.73,1.98,-14.3,25.1
2015-04-29 00:08:00,0.0,1.91775,0.00050,406.114,0.200,0.1724,0.0015,140.000,45.000,34012.26853,1.92100,406.962,32.439,45.068,45.000,0.00,0.09,-272.72,-272.78,2,954,-1,20.3,5.4,-19.8,20.1,5.5,-19.6,5.73,2.02,-14.3,25.1
2015-04-29 00:09:00,0.0,1.91797,0.00032,406.119,0.140,0.1718,0.0012,140.001,45.000,34013.76883,1.92123,406.959,32.438,45.068,45.000,0.00,0.09,-272.72,-272.78,2,954,-1,20.3,5.4,-19.8,20.1,5.5,-19.6,5.73,1.85,-14.4,25.0
2015-04-29 00:10:00,0.0,1.91810,0.00042,405.907,0.093,0.1724,0.0018,139.998,45.000,34011.95574,1.92135,406.760,32.436,45.068,45.000,0.00,0.09,-272.72,-272.78,1,953,-1,20.3,5.4,-19.8,20.1,5.5,-19.6,5.73,1.97,-14.4,25.0
2015-04-29 00:11:00,0.0,1.91818,0.00046,406.059,0.065,0.1734,0.0019,140.000,45.000,34016.70857,1.92144,406.905,32.409,45.068,45.000,0.00,0.09,-272.72,-272.79,2,955,-1,20.3,5.4,-19.7,20.1,5.6,-19.5,5.73,2.02,-14.4,25.0
2015-04-29 00:12:00,0.0,1.91844,0.00033,406.053,0.145,0.1731,0.0019,139.996,45.000,34014.47338,1.92172,406.906,32.405,45.068,45.000,0.00,0.09,-272.72,-272.77,2,954,-1,20.3,5.4,-19.7,20.1,5.6,-19.5,5.73,1.89,-14.4,25.1
2015-04-29 00:13:00,0.0,1.91870,0.00037,406.045,0.092,0.1735,0.0011,140.003,45.000,34014.81926,1.92200,406.892,32.436,45.069,45.000,0.00,0.09,-272.73,-272.78,1,955,-1,20.3,5.4,-19.7,20.1,5.6,-19.5,5.73,1.92,-14.4,25.1
2015-04-29 00:14:00,0.0,1.91831,0.00051,405.944,0.103,0.1730,0.0012,140.001,45.000,34011.62663,1.92159,406.792,32.431,45.068,45.000,0.00,0.09,-272.72,-272.77,2,953,-1,20.3,5.4,-19.7,20.1,5.5,-19.6,5.73,2.05,-14.4,25.1
2015-04-29 00:15:00,0.0,1.91829,0.00035,406.135,0.097,0.1718,0.0012,139.998,45.000,34010.69782,1.92156,406.978,32.419,45.068,45.000,0.00,0.09,-272.72,-272.77,2,955,-1,20.3,5.3,-19.8,20.1,5.5,-19.6,5.73,1.89,-14.4,25.1
2015-04-29 00:16:00,0.0,1.91780,0.00039,406.115,0.109,0.1715,0.0020,139.999,45.000,34011.37453,1.92108,406.952,32.437,45.068,45.000,0.00,0.09,-272.72,-272.77,2,953,-1,20.3,5.3,-19.8,20.1,5.5,-19.6,5.73,1.92,-14.4,25.1
2015-04-29 00:17:00,0.0,1.91809,0.00040,406.263,0.111,0.1718,0.0022,140.000,45.000,34010.17358,1.92131,407.097,32.438,45.068,45.000,0.00,0.09,-272.73,-272.78,1,952,-1,20.3,5.3,-19.9,20.1,5.5,-19.6,5.73,2.05,-14.4,25.1
2015-04-29 00:18:00,0.0,1.91835,0.00037,406.444,0.091,0.1722,0.0019,140.000,45.000,34009.47325,1.92158,407.290,32.439,45.068,45.000,0.00,0.09,-272.71,-272.77,2,954,-1,20.3,5.4,-19.8,20.1,5.5,-19.6,5.73,1.88,-14.5,25.1
2015-04-29 00:19:00,0.0,1.91837,0.00052,406.245,0.162,0.1722,0.0020,139.995,45.000,34006.39379,1.92169,407.103,32.438,45.069,45.000,0.00,0.09,-272.72,-272.78,3,952,-1,20.3,5.4,-19.8,20.1,5.5,-19.6,5.73,1.93,-14.5,25.1
2015-04-29 00:20:00,0.0,1.91833,0.00039,406.215,0.152,0.1733,0.0017,139.999,45.000,34007.31048,1.92158,407.056,32.438,45.069,45.000,0.00,0.09,-272.73,-272.78,2,951,-1,20.3,5.4,-19.7,20.1,5.5,-19.6,5.73,2.05,-14.5,25.1
2015-04-29 00:21:00,0.0,1.91877,0.00048,406.736,0.144,0.1733,0.0015,140.004,45.000,34011.39980,1.92205,407.578,32.433,45.069,45.000,0.00,0.09,-272.71,-272.78,2,952,-1,20.3,5.4,-19.7,20.1,5.5,-19.6,5.73,1.87,-14.5,25.1
2015-04-29 00:22:00,0.0,1.91848,0.00042,406.457,0.239,0.1739,0.0013,140.002,45.000,34008.92315,1.92174,407.308,32.438,45.069,45.000,0.00,0.09,-272.71,-272.78,3,952,-1,20.3,5.4,-19.7,20.1,5.6,-19.5,5.73,1.93,-14.5,25.1
2015-04-29 00:23:00,0.0,1.91879,0.00039,406.925,0.110,0.1733,0.0020,139.999,45.000,34010.35703,1.92209,407.775,32.437,45.069,45.000,0.00,0.09,-272.73,-272.78,2,952,-1,20.3,5.4,-19.7,20.1,5.5,-19.5,5.73,2.03,-14.5,25.1
2015-04-29 00:24:00,0.0,1.91920,0.00036,407.086,0.171,0.1729,0.0016,139.999,45.000,34013.95742,1.92245,407.925,32.436,45.069,45.000,0.00,0.09,-272.73,-272.78,2,953,-1,20.3,5.4,-19.8,20.1,5.5,-19.6,5.73,1.89,-14.5,25.1
2015-04-29 00:25:00,0.0,1.91951,0.00056,407.270,0.130,0.1720,0.0015,140.000,45.000,34015.59071,1.92281,408.114,32.427,45.068,45.000,0.00,0.09,-272.72,-272.78,2,953,-1,20.3,5.4,-19.8,20.1,5.5,-19.6,5.73,1.93,-14.5,25.1
2015-04-29 00:26:00,0.0,1.91894,0.00039,407.299,0.304,0.1728,0.0024,139.998,45.000,34017.91568,1.92218,408.159,32.433,45.068,45.000,0.00,0.09,-272.73,-272.78,3,953,-1,20.3,5.4,-19.7,20.1,5.5,-19.6,5.73,2.03,-14.5,25.1
2015-04-29 00:27:00,0.0,1.91915,0.00057,406.563,0.359,0.1723,0.0017,139.995,45.000,34016.37087,1.92247,407.423,32.414,45.068,45.000,0.00,0.09,-272.73,-272.78,2,952,-1,20.3,5.4,-19.8,20.1,5.5,-19.6,5.73,1.91,-14.5,25.1
2015-04-29 00:28:00,0.0,1.91979,0.00057,406.159,0.139,0.1727,0.0013,139.999,45.000,34017.42083,1.92300,407.010,32.379,45.068,45.000,0.00,0.09,-272.72,-272.77,2,954,-1,20.3,5.3,-19.8,20.1,5.5,-19.6,5.73,1.90,-14.5,25.1
2015-04-29 00:29:00,0.0,1.91933,0.00060,406.291,0.071,0.1715,0.0011,140.001,45.000,34019.63803,1.92266,407.127,32.377,45.068,45.000,0.00,0.09,-272.72,-272.77,2,952,-1,20.3,5.3,-19.9,20.1,5.5,-19.7,5.73,2.04,-14.5,25.2
2015-04-29 00:30:00,0.0,1.91873,0.00037,406.296,0.172,0.1693,0.0014,140.001,45.000,34019.60211,1.92194,407.134,32.399,45.069,45.000,0.00,0.09,-272.72,-272.77,2,953,-1,20.3,5.3,-20.0,20.1,5.4,-19.7,5.73,1.93,-14.5,25.1
2015-04-29 00:31:00,0.0,1.91875,0.00036,405.751,0.096,0.1700,0.0018,139.993,45.000,34018.92143,1.92193,406.586,32.435,45.069,45.000,0.00,0.09,-272.72,-272.78,3,953,-1,20.3,5.3,-20.0,20.1,5.4,-19.7,5.73,1.88,-14.5,25.1
2015-04-29 00:32:00,0.0,1.91908,0.00058,406.065,0.152,0.1712,0.0014,139.999,45.000,34022.21424,1.92234,406.904,32.442,45.068,45.000,0.00,0.09,-272.72,-272.78,2,954,-1,20.3,5.3,-19.9,20.1,5.5,-19.7,5.73,2.04,-14.5,25.2
2015-04-29 00:33:00,0.0,1.91902,0.00040,405.807,0.152,0.1725,0.0021,139.999,45.000,34021.35514,1.92228,406.652,32.457,45.068,45.000,0.00,0.09,-272.72,-272.78,2,953,-1,20.3,5.3,-19.8,20.1,5.5,-19.6,5.73,1.93,-14.5,25.2
2015-04-29 00:34:00,0.0,1.91982,0.00059,405.698,0.194,0.1727,0.0017,139.999,45.000,34021.02641,1.92309,406.545,32.446,45.068,45.000,0.00,0.09,-272.71,-272.79,2,952,-1,20.3,5.3,-19.8,20.1,5.5,-19.6,5.73,1.89,-14.5,25.1
2015-04-29 00:35:00,0.0,1.91921,0.00053,405.901,0.094,0.1717,0.0023,139.995,45.000,34020.34264,1.92243,406.742,32.466,45.068,45.000,0.00,0.09,-272.72,-272.77,2,954,-1,20.4,5.3,-19.9,20.1,5.5,-19.6,5.73,2.03,-14.5,25.2
2015-04-29 00:36:00,0.0,1.92008,0.00039,405.623,0.124,0.1704,0.0020,139.996,45.000,34017.82990,1.92328,406.464,32.497,45.068,45.000,0.00,0.09,-272.72,-272.78,2,952,-1,20.3,5.3,-20.0,20.1,5.4,-19.7,5.73,1.95,-14.5,25.2
2015-04-29 00:37:00,0.0,1.91967,0.00069,405.601,0.152,0.1709,0.0013,139.996,45.000,34019.99069,1.92300,406.426,32.500,45.068,45.000,0.00,0.09,-272.73,-272.78,2,953,-1,20.3,5.3,-19.9,20.1,5.4,-19.7,5.73,1.89,-14.5,25.2
2015-04-29 00:38:00,0.0,1.91873,0.00057,406.247,0.114,0.1722,0.0018,140.000,45.000,34019.62933,1.92193,407.089,32.489,45.068,45.000,0.00,0.09,-272.72,-272.78,2,954,-1,20.3,5.3,-19.8,20.1,5.5,-19.7,5.73,2.02,-14.5,25.2
2015-04-29 00:39:00,0.0,1.91944,0.00055,406.634,0.354,0.1737,0.0020,139.999,45.000,34020.02129,1.92276,407.468,32.451,45.068,45.000,0.00,0.09,-272.73,-272.77,2,953,-1,20.4,5.4,-19.7,20.1,5.5,-19.6,5.73,1.95,-14.5,25.2
2015-04-29 00:40:00,0.0,1.91969,0.00060,406.564,0.559,0.1745,0.0017,139.997,45.000,34019.53179,1.92293,407.450,32.447,45.068,45.000,0.00,0.09,-272.72,-272.77,2,954,-1,20.4,5.4,-19.6,20.1,5.6,-19.5,5.73,1.87,-14.5,25.2
2015-04-29 00:41:00,0.0,1.92130,0.00052,405.502,0.127,0.1730,0.0017,139.997,45.000,34020.04052,1.92456,406.354,32.438,45.069,45.000,0.00,0.09,-272.72,-272.78,3,953,-1,20.3,5.4,-19.7,20.1,5.6,-19.5,5.73,2.03,-14.5,25.2
2015-04-29 00:42:00,0.0,1.92082,0.00049,405.788,0.204,0.1715,0.0020,140.005,45.000,34018.70571,1.92408,406.618,32.438,45.068,45.000,0.00,0.09,-272.72,-272.78,2,954,-1,20.4,5.3,-19.8,20.1,5.5,-19.6,5.73,1.97,-14.5,25.1
2015-04-29 00:43:00,0.0,1.92103,0.00032,405.711,0.086,0.1680,0.0017,139.997,45.000,34016.83382,1.92423,406.538,32.438,45.069,45.000,0.00,0.09,-272.72,-272.78,2,953,-1,20.3,5.2,-20.2,20.1,5.4,-19.8,5.73,1.86,-14.5,25.2
2015-04-29 00:44:00,0.0,1.92162,0.00043,405.447,0.140,0.1656,0.0019,140.001,45.000,34018.91072,1.92472,406.264,32.449,45.069,45.000,0.00,0.09,-272.73,-272.78,2,953,-1,20.4,5.1,-20.2,20.1,5.3,-20.0,5.73,2.03,-14.5,25.2
2015-04-29 00:45:00,0.0,1.92145,0.00038,405.672,0.131,0.1676,0.0018,139.999,45.000,34014.96026,1.92468,406.482,32.447,45.069,45.000,0.00,0.09,-272.72,-272.78,2,954,-1,20.3,5.2,-20.2,20.1,5.3,-20.0,5.73,1.96,-14.5,25.2
2015-04-29 00:46:00,0.0,1.92144,0.00040,405.723,0.106,0.1661,0.0019,139.999,45.000,34015.00460,1.92457,406.544,32.461,45.069,45.000,0.00,0.09,-272.72,-272.77,2,952,-1,20.3,5.1,-20.3,20.1,5.3,-20.0,5.73,1.86,-14.5,25.3
2015-04-29 00:47:00,0.0,1.92142,0.00036,405.484,0.057,0.1668,0.0011,140.000,45.000,34014.42912,1.92458,406.302,32.461,45.069,45.000,0.00,0.09,-272.73,-272.78,1,952,-1,20.3,5.2,-20.2,20.2,5.3,-20.0,5.73,2.03,-14.5,25.2
2015-04-29 00:48:00,0.0,1.92175,0.00048,405.452,0.109,0.1683,0.0016,140.000,45.000,34014.07341,1.92498,406.271,32.463,45.068,45.000,0.00,0.09,-272.71,-272.78,2,954,-1,20.4,5.2,-20.1,20.2,5.4,-19.9,5.73,1.95,-14.5,25.2
2015-04-29 00:49:00,0.0,1.92145,0.00048,405.497,0.060,0.1693,0.0019,139.998,45.000,34019.39872,1.92463,406.326,32.442,45.068,45.000,0.00,0.09,-272.71,-272.78,2,953,-1,20.4,5.2,-20.0,20.1,5.4,-19.8,5.73,1.86,-14.5,25.1
2015-04-29 00:50:00,0.0,1.92148,0.00044,405.377,0.110,0.1718,0.0021,139.998,45.000,34022.24410,1.92472,406.226,32.439,45.068,45.000,0.00,0.09,-272.73,-272.79,1,955,-1,20.4,5.3,-19.9,20.2,5.4,-19.7,5.73,2.01,-14.5,25.1
2015-04-29 00:51:00,0.0,1.92145,0.00040,405.241,0.057,0.1697,0.0019,139.998,45.000,34022.38563,1.92470,406.072,32.437,45.068,45.000,0.00,0.09,-272.72,-272.77,2,953,-1,20.4,5.3,-19.9,20.1,5.4,-19.7,5.73,2.00,-14.5,25.1
2015-04-29 00:52:00,0.0,1.92133,0.00042,405.236,0.031,0.1690,0.0015,140.002,45.000,34028.18934,1.92455,406.062,32.437,45.068,45.000,0.00,0.09,-272.72,-272.78,2,956,-1,20.4,5.2,-20.0,20.1,5.4,-19.8,5.73,1.86,-14.5,25.1
2015-04-29 00:53:00,0.0,1.92132,0.00040,405.382,0.049,0.1672,0.0015,139.997,45.000,34025.84255,1.92449,406.198,32.429,45.068,45.000,0.00,0.09,-272.72,-272.78,2,954,-1,20.4,5.2,-20.1,20.2,5.4,-19.9,5.73,1.97,-14.5,25.1
2015-04-29 00:54:00,0.0,1.92169,0.00047,405.307,0.039,0.1677,0.0014,140.002,45.000,34028.65880,1.92484,406.130,32.422,45.068,45.000,0.00,0.09,-272.73,-272.78,2,956,-1,20.4,5.1,-20.2,20.2,5.3,-19.9,5.73,2.02,-14.5,25.1
2015-04-29 00:55:00,0.0,1.92169,0.00040,405.341,0.034,0.1671,0.0018,140.002,45.000,34029.75554,1.92484,406.156,32.427,45.068,45.000,0.00,0.09,-272.72,-272.77,1,954,-1,20.4,5.1,-20.2,20.2,5.3,-19.9,5.73,1.91,-14.5,25.1
2015-04-29 00:56:00,0.0,1.92184,0.00028,405.461,0.085,0.1662,0.0016,139.999,45.000,34027.53453,1.92502,406.271,32.435,45.068,45.000,0.00,0.09,-272.72,-272.77,2,956,-1,20.4,5.1,-20.2,20.2,5.3,-20.0,5.73,1.90,-14.5,25.1
2015-04-29 00:57:00,0.0,1.92107,0.00039,405.863,0.204,0.1659,0.0018,139.998,45.000,34030.21669,1.92428,406.664,32.437,45.068,45.000,0.00,0.09,-272.73,-272.79,1,956,-1,20.4,5.1,-20.3,20.2,5.3,-20.0,5.73,2.04,-14.5,25.1
2015-04-29 00:58:00,0.0,1.92051,0.00024,405.837,0.216,0.1672,0.0015,139.997,45.000,34031.96666,1.92369,406.664,32.438,45.068,45.000,0.00,0.09,-272.72,-272.78,2,955,-1,20.4,5.1,-20.2,20.2,5.3,-20.0,5.73,1.95,-14.5,25.2
2015-04-29 00:59:00,0.0,1.92038,0.00043,405.771,0.065,0.1679,0.0019,140.006,45.000,34028.05523,1.92357,406.592,32.438,45.068,45.000,0.00,0.09,-272.72,-272.77,1,954,-1,20.4,5.2,-20.1,20.2,5.3,-19.9,5.73,1.87,-14.5,25.2
2015-04-29 01:00:00,0.0,1.92007,0.00039,405.588,0.114,0.1687,0.0013,140.008,45.000,34028.72760,1.92325,406.419,32.451,45.068,45.000,0.00,0.09,-272.72,-272.78,2,956,-1,20.4,5.2,-20.1,20.2,5.4,-19.9,5.73,2.02,-14.4,25.2
2015-04-29 01:01:00,0.0,1.92055,0.00051,405.390,0.064,0.1679,0.0017,139.995,45.001,34023.20621,1.92374,406.212,32.478,45.069,45.000,0.00,0.09,-272.72,-272.78,2,954,-1,20.4,5.2,-20.1,20.2,5.4,-19.8,5.73,1.97,-14.4,25.2
2015-04-29 01:02:00,0.0,1.92056,0.00047,405.633,0.083,0.1671,0.0021,139.998,45.001,34019.39473,1.92370,406.445,32.497,45.068,45.000,0.00,0.09,-272.71,-272.77,1,954,-1,20.4,5.1,-20.2,20.2,5.3,-19.9,5.73,1.86,-14.5,25.2
2015-04-29 01:03:00,0.0,1.92026,0.00062,405.847,0.093,0.1651,0.0017,139.999,45.001,34019.84153,1.92341,406.656,32.500,45.068,45.000,0.00,0.09,-272.72,-272.78,2,954,-1,20.4,5.1,-20.3,20.2,5.3,-20.1,5.73,2.03,-14.4,25.3
2015-04-29 01:04:00,0.0,1.92047,0.00035,405.675,0.077,0.1667,0.0022,139.998,45.001,34020.12816,1.92367,406.489,32.501,45.068,45.000,0.00,0.09,-272.73,-272.78,2,953,-1,20.4,5.1,-20.3,20.2,5.3,-20.1,5.73,1.96,-14.4,25.2
2015-04-29 01:05:00,0.0,1.92086,0.00033,405.446,0.146,0.1694,0.0015,140.002,45.001,34021.23531,1.92405,406.282,32.507,45.068,45.000,0.00,0.09,-272.72,-272.78,2,954,-1,20.4,5.2,-20.1,20.2,5.3,-19.9,5.73,1.86,-14.4,25.2
2015-04-29 01:06:00,0.0,1.92110,0.00041,405.557,0.134,0.1697,0.0014,139.999,45.000,34021.80256,1.92432,406.382,32.511,45.068,45.000,0.00,0.09,-272.72,-272.77,2,952,-1,20.4,5.2,-20.0,20.2,5.4,-19.8,5.73,2.02,-14.4,25.2
2015-04-29 01:07:00,0.0,1.92098,0.00034,405.656,0.144,0.1698,0.0014,140.001,45.000,34027.56902,1.92419,406.491,32.522,45.068,45.000,0.00,0.09,-272.72,-272.78,1,956,-1,20.5,5.2,-20.0,20.2,5.4,-19.8,5.73,1.98,-14.4,25.1
2015-04-29 01:08:00,0.0,1.92077,0.00048,405.220,0.089,0.1699,0.0016,139.999,45.000,34026.92932,1.92402,406.055,32.556,45.068,45.000,0.00,0.09,-272.72,-272.77,2,954,-1,20.5,5.2,-20.0,20.2,5.4,-19.8,5.73,1.87,-14.4,25.1
2015-04-29 01:09:00,0.0,1.92079,0.00036,405.322,0.148,0.1697,0.0011,139.996,45.000,34030.34963,1.92401,406.156,32.557,45.068,44.999,0.00,0.09,-272.72,-272.77,1,956,-1,20.5,5.2,-20.0,20.2,5.4,-19.7,5.73,1.96,-14.4,25.1
2015-04-29 01:10:00,0.0,1.92108,0.00027,404.979,0.062,0.1693,0.0015,140.004,45.000,34032.92867,1.92428,405.810,32.537,45.068,44.999,0.00,0.09,-272.72,-272.78,1,954,-1,20.5,5.2,-20.0,20.2,5.4,-19.8,5.73,2.04,-14.4,25.1
2015-04-29 01:11:00,0.0,1.92102,0.00046,405.083,0.170,0.1671,0.0019,140.000,45.000,34034.27342,1.92419,405.904,32.523,45.068,45.000,0.00,0.09,-272.72,-272.78,2,956,-1,20.5,5.1,-20.1,20.3,5.3,-19.8,5.73,1.90,-14.4,25.1
2015-04-29 01:12:00,0.0,1.92132,0.00034,404.900,0.027,0.1675,0.0012,140.001,45.000,34037.05371,1.92447,405.716,32.500,45.068,45.000,0.00,0.09,-272.72,-272.76,1,958,-1,20.5,5.1,-20.1,20.3,5.3,-19.9,5.73,1.88,-14.4,25.1
2015-04-29 01:13:00,0.0,1.92130,0.00034,404.976,0.072,0.1659,0.0021,139.996,45.000,34041.17240,1.92446,405.785,32.501,45.068,45.000,0.00,0.09,-272.72,-272.77,1,956,-1,20.5,5.1,-20.2,20.3,5.3,-19.9,5.73,2.01,-14.4,25.1
2015-04-29 01:14:00,0.0,1.92142,0.00036,405.060,0.085,0.1640,0.0020,140.001,45.000,34043.90811,1.92453,405.859,32.512,45.068,45.000,0.00,0.09,-272.72,-272.78,2,956,-1,20.5,5.0,-20.3,20.3,5.2,-20.1,5.73,2.02,-14.4,25.1
2015-04-29 01:15:00,0.0,1.92116,0.00038,405.080,0.058,0.1623,0.0017,140.001,45.000,34049.74910,1.92425,405.877,32.513,45.068,45.000,0.00,0.09,-272.71,-272.78,1,959,-1,20.5,5.0,-20.5,20.3,5.2,-20.2,5.73,1.90,-14.4,25.1
2015-04-29 01:16:00,0.0,1.92132,0.00038,405.016,0.032,0.1607,0.0015,139.996,45.000,34049.58956,1.92435,405.800,32.503,45.068,45.000,0.00,0.09,-272.72,-272.77,0,959,-1,20.6,4.9,-20.6,20.3,5.1,-20.4,5.73,1.90,-14.4,25.1
2015-04-29 01:17:00,0.0,1.92185,0.00035,405.092,0.050,0.1588,0.0015,139.993,45.000,34045.97421,1.92483,405.869,32.511,45.068,45.000,0.00,0.09,-272.73,-272.79,1,957,-1,20.6,4.9,-20.7,20.3,5.1,-20.5,5.73,2.00,-14.4,25.1
2015-04-29 01:18:00,0.0,1.92220,0.00038,405.083,0.031,0.1574,0.0019,139.997,45.000,34045.32974,1.92519,405.851,32.530,45.068,45.000,0.00,0.09,-272.73,-272.77,2,958,-1,20.5,4.8,-20.8,20.3,5.0,-20.5,5.73,2.02,-14.4,25.2
2015-04-29 01:19:00,0.0,1.92233,0.00027,405.085,0.055,0.1581,0.0014,140.002,45.000,34043.98932,1.92536,405.857,32.560,45.068,45.000,0.00,0.09,-272.72,-272.77,1,957,-1,20.5,4.8,-20.8,20.3,5.0,-20.6,5.73,1.89,-14.4,25.2
2015-04-29 01:20:00,0.0,1.92195,0.00036,405.168,0.044,0.1569,0.0022,139.998,45.000,34040.19771,1.92488,405.935,32.563,45.068,45.000,0.00,0.09,-272.72,-272.77,1,957,-1,20.5,4.8,-20.8,20.3,5.0,-20.6,5.73,1.91,-14.4,25.2
2015-04-29 01:21:00,0.0,1.92247,0.00033,405.093,0.032,0.1574,0.0012,139.999,45.000,34035.91116,1.92544,405.864,32.563,45.068,45.000,0.00,0.09,-272.73,-272.78,1,957,-1,20.5,4.8,-20.8,20.3,5.0,-20.6,5.73,2.05,-14.4,25.2
2015-04-29 01:22:00,0.0,1.92224,0.00042,405.198,0.052,0.1575,0.0018,140.001,45.000,34035.64535,1.92530,405.964,32.563,45.068,45.000,0.00,0.09,-272.71,-272.77,2,956,-1,20.5,4.8,-20.8,20.3,5.0,-20.6,5.73,1.91,-14.4,25.2
2015-04-29 01:23:00,0.0,1.92219,0.00050,405.240,0.045,0.1583,0.0011,139.997,45.000,34032.40263,1.92517,406.017,32.577,45.069,45.000,0.00,0.09,-272.72,-272.77,1,955,-1,20.5,4.9,-20.8,20.3,5.0,-20.6,5.73,1.90,-14.4,25.2
2015-04-29 01:24:00,0.0,1.92216,0.00056,405.258,0.038,0.1592,0.0020,140.003,45.000,34030.12499,1.92523,406.033,32.598,45.069,45.000,0.00,0.09,-272.73,-272.78,1,955,-1,20.5,4.9,-20.7,20.3,5.0,-20.6,5.73,2.04,-14.4,25.3
2015-04-29 01:25:00,0.0,1.92216,0.00062,405.280,0.044,0.1588,0.0023,140.001,45.000,34030.85473,1.92509,406.056,32.609,45.069,45.000,0.00,0.09,-272.72,-272.77,1,954,-1,20.5,4.9,-20.7,20.3,5.0,-20.5,5.73,1.93,-14.4,25.3
2015-04-29 01:26:00,0.0,1.92307,0.00028,405.304,0.033,0.1599,0.0018,140.002,45.000,34028.23173,1.92612,406.087,32.606,45.069,45.000,0.00,0.09,-272.72,-272.77,1,955,-1,20.5,4.9,-20.6,20.3,5.0,-20.5,5.73,1.89,-14.4,25.3
2015-04-29 01:27:00,0.0,1.92312,0.00036,405.283,0.059,0.1572,0.0023,140.000,45.000,34026.47194,1.92609,406.053,32.618,45.069,45.000,0.00,0.09,-272.72,-272.78,2,954,-1,20.5,4.8,-20.8,20.3,5.0,-20.6,5.73,2.03,-14.4,25.2
2015-04-29 01:28:00,0.0,1.92314,0.00054,405.175,0.048,0.1564,0.0015,139.996,45.000,34027.26762,1.92612,405.941,32.624,45.069,45.000,0.00,0.09,-272.72,-272.78,1,955,-1,20.6,4.8,-20.8,20.3,5.0,-20.6,5.73,1.96,-14.4,25.2
2015-04-29 01:29:00,0.0,1.92275,0.00042,405.355,0.134,0.1556,0.0016,140.004,45.000,34031.61651,1.92571,406.108,32.615,45.068,45.000,0.00,0.09,-272.72,-272.77,2,956,-1,20.6,4.8,-20.9,20.3,4.9,-20.7,5.73,1.86,-14.4,25.2
2015-04-29 01:30:00,0.0,1.92259,0.00044,405.530,0.059,0.1551,0.0014,139.998,45.000,34028.81138,1.92554,406.294,32.619,45.068,45.000,0.00,0.09,-272.72,-272.77,1,955,-1,20.6,4.8,-20.9,20.3,4.9,-20.7,5.73,2.02,-14.3,25.2
2015-04-29 01:31:00,0.0,1.92303,0.00039,405.302,0.050,0.1564,0.0019,139.999,45.000,34035.00533,1.92597,406.068,32.619,45.068,45.000,0.00,0.09,-272.71,-272.78,2,956,-1,20.6,4.8,-20.9,20.3,4.9,-20.7,5.73,1.99,-14.4,25.2
2015-04-29 01:32:00,0.0,1.92322,0.00040,405.319,0.124,0.1564,0.0021,139.996,45.000,34038.10615,1.92623,406.079,32.622,45.068,45.000,0.00,0.09,-272.72,-272.77,1,956,-1,20.6,4.8,-20.9,20.3,4.9,-20.7,5.73,1.86,-14.4,25.2
2015-04-29 01:33:00,0.0,1.92312,0.00046,405.331,0.159,0.1545,0.0017,140.001,45.000,34040.59427,1.92601,406.095,32.610,45.068,45.000,0.00,0.09,-272.72,-272.77,2,955,-1,20.6,4.7,-21.0,20.3,4.9,-20.7,5.73,1.94,-14.3,25.2
2015-04-29 01:34:00,0.0,1.92300,0.00040,405.247,0.050,0.1544,0.0014,140.001,45.000,34046.40435,1.92596,406.001,32.602,45.068,45.000,0.00,0.09,-272.73,-272.78,1,958,-1,20.6,4.7,-21.0,20.3,4.9,-20.8,5.73,2.03,-14.3,25.2
2015-04-29 01:35:00,0.0,1.92337,0.00044,405.187,0.041,0.1543,0.0016,139.998,45.000,34044.84035,1.92628,405.942,32.588,45.068,45.000,0.00,0.09,-272.72,-272.78,1,957,-1,20.6,4.7,-21.0,20.3,4.9,-20.8,5.73,1.94,-14.3,25.2
2015-04-29 01:36:00,0.0,1.92292,0.00048,405.309,0.040,0.1533,0.0010,140.000,45.000,34044.81746,1.92580,406.059,32.588,45.068,45.000,0.00,0.09,-272.72,-272.77,1,958,-1,20.6,4.7,-21.0,20.3,4.9,-20.8,5.73,1.87,-14.3,25.2
2015-04-29 01:37:00,0.0,1.92304,0.00044,405.291,0.043,0.1541,0.0014,139.994,45.000,34045.08436,1.92598,406.043,32.580,45.068,45.000,0.00,0.09,-272.72,-272.78,0,958,-1,20.6,4.7,-21.0,20.3,4.9,-20.8,5.73,1.99,-14.3,25.2
2015-04-29 01:38:00,0.0,1.92267,0.00056,405.283,0.033,0.1525,0.0026,139.998,45.000,34044.47196,1.92561,406.029,32.591,45.068,45.000,0.00,0.09,-272.72,-272.78,2,956,-1,20.6,4.7,-21.1,20.3,4.9,-20.9,5.73,2.02,-14.3,25.2
2015-04-29 01:39:00,0.0,1.92348,0.00050,405.189,0.073,0.1529,0.0020,139.999,45.000,34045.83577,1.92629,405.939,32.622,45.069,45.000,0.00,0.09,-272.71,-272.77,2,958,-1,20.6,4.7,-21.1,20.3,4.8,-20.9,5.73,1.88,-14.3,25.2
2015-04-29 01:40:00,0.0,1.92384,0.00037,405.168,0.052,0.1530,0.0022,140.000,45.000,34042.40437,1.92677,405.915,32.625,45.068,45.000,0.00,0.09,-272.72,-272.78,1,955,-1,20.7,4.7,-21.1,20.3,4.9,-20.9,5.73,1.94,-14.3,25.2
2015-04-29 01:41:00,0.0,1.92393,0.00032,405.205,0.055,0.1533,0.0017,140.010,45.000,34045.74644,1.92686,405.952,32.625,45.068,45.000,0.00,0.09,-272.73,-272.78,1,957,-1,20.6,4.7,-21.0,20.3,4.9,-20.9,5.73,2.04,-14.3,25.3
2015-04-29 01:42:00,0.0,1.92356,0.00061,405.337,0.074,0.1546,0.0019,139.997,45.000,34042.46320,1.92651,406.092,32.621,45.068,45.000,0.00,0.09,-272.72,-272.77,1,957,-1,20.7,4.7,-20.9,20.3,4.9,-20.8,5.73,1.92,-14.3,25.3
2015-04-29 01:43:00,0.0,1.92333,0.00041,405.480,0.155,0.1536,0.0015,140.000,45.000,34046.61618,1.92626,406.225,32.604,45.069,45.000,0.00,0.09,-272.71,-272.76,1,958,-1,20.7,4.7,-21.0,20.3,4.9,-20.9,5.73,1.89,-14.3,25.3
2015-04-29 01:44:00,0.0,1.92356,0.00039,405.607,0.103,0.1544,0.0014,140.000,45.000,34047.32363,1.92645,406.364,32.623,45.069,45.000,0.00,0.09,-272.75,-272.77,1,956,-1,20.7,4.7,-21.0,20.3,4.9,-20.9,5.73,2.03,-14.3,25.3
2015-04-29 01:45:00,0.0,1.92383,0.00027,405.698,0.075,0.1538,0.0020,139.999,45.000,34047.65045,1.92674,406.448,32.612,45.069,45.000,0.00,0.09,-272.72,-272.80,1,957,-1,20.7,4.7,-21.0,20.4,4.9,-20.8,5.73,1.97,-14.3,25.3
2015-04-29 01:46:00,0.0,1.92353,0.00058,405.858,0.072,0.1558,0.0017,139.995,45.000,34046.49442,1.92648,406.614,32.611,45.069,45.000,0.00,0.09,-272.72,-272.77,1,957,-1,20.7,4.7,-20.9,20.4,4.9,-20.8,5.73,1.88,-14.3,25.3